Regional Weather Roundup
Issued by NWS Nashville, TN

Home | Current Version | Previous Version | Text Only | Print | Product List | Glossary On
Versions: 1 2 3 4 5 6 7 8 9 10 11 12 13 14 15 16 17 18 19 20 21 22 23 24 25 26 27
000
ASUS44 KOHX 271210
RWROHX
MIDDLE TENNESSEE HOURLY WEATHER ROUNDUP
NATIONAL WEATHER SERVICE NASHVILLE TN
600 AM CST MON FEB 27 2017

NOTE: "FAIR" INDICATES FEW OR NO CLOUDS BELOW 12,000 FEET WITH
NO SIGNIFICANT WEATHER AND/OR OBSTRUCTIONS TO VISIBILITY.

* THESE REPORTS ARE NOT UNDER NWS QUALITY CONTROL AND MAY NOT
  REPORT WEATHER SUCH AS PRECIPITATION AND FOG.


TNZ005>011-023>034-057-059-062>066-078-080-271300
...NORTHERN MIDDLE TENNESSEE...

CITY           SKY/WX    TMP DP  RH WIND       PRES   REMARKS
CLARKSVILLE    LGT RAIN  46  42  86 CALM      30.14F
CROSSVILLE     PTCLDY    41  24  51 CALM      30.24R
GALLATIN       CLOUDY    45  43  93 CALM      30.24R
DICKSON        CLOUDY    45  43  93 S6        30.17R
LIVINGSTON     PTCLDY    44  25  47 NE5       30.22S
NASHVILLE      CLOUDY    47  35  63 CALM      30.21S
PORTLAND       CLOUDY    46  45  93 S6        30.20S
SMYRNA         CLOUDY    45  30  55 CALM      30.23R
SPARTA         MOCLDY    46  27  46 SE5       30.21S
SPRINGFIELD    CLOUDY    46  45  93 S7        30.18S
WEST NASHVILLE PTCLDY    45  43  93 CALM      30.22R
$$
TNZ056-058-060-061-075>077-079-093>097-271300
...SOUTHERN MIDDLE TENNESSEE...

CITY           SKY/WX    TMP DP  RH WIND       PRES   REMARKS
COLUMBIA       MOCLDY    46  34  61 CALM      30.19R
FAYETTEVILLE   CLOUDY    46  30  53 N10       30.20R
MCMINNVILLE    CLEAR     45  28  53 E3        30.23R
MURFREESBORO     N/A     46  30  54 SE5       30.20F
SHELBYVILLE    CLEAR     46  32  57 E7        30.22S
TULLAHOMA      CLEAR     43  25  49 NE3       30.22R
WINCHESTER     CLEAR     48  28  46 CALM      30.21R
$$


...KEY TO REMARKS...
VSB - VISIBILITY IN MILES
WCI - WIND CHILL INDEX
HX  - HEAT INDEX





USA.gov is the U.S. government's official web portal to all federal, state and local government web resources and services.